www.pogodaiklimat.ru

Погода и климат >> Архив погоды >> Россия >> Краснодарский край >> Кореновск


ПОГОДА в Кореновске

  • Прогноз погоды в Кореновске
  • Монитор погоды в Кореновске

АРХИВ ПОГОДЫ в Кореновске

Время (UTC), дата Ветер
(напр.,м/с)
 
Видим.   Явления Облачность Т
(С)
Тd
(С)
f
(%)
Тe
(С)
Тes
(С)
Комфортность P
(гПа)
Po
(гПа)
Тmin
(С)
Tmax
(С)
R
(мм)
R24
(мм)
S
(см)
00 19.08 штиль 0 10 км {ливн. осадки} 10/10 600 м
[Cb cap]
+18.6 +16.5 88 +19 +19 1014.0 1008.4
03 19.08 СЗ 1 10 км гроза, ливневой дождь 10/8 600 м
[Cb cap Ac und]
+19.0 +16.9 88 +22 +22 комфорт 1014.5 1008.9 +18.2 0.3
06 19.08 СВ 1 10 км в посл. час гроза {ливн. осадки} 9/4 1500 м
[Sc Ac trans]
+21.1 +17.6 80 +25 +27 комфорт 1015.7 1010.1
09 19.08 СЗ 1 10 км 9/6 300 м
[St Ac trans]
+24.2 +19.0 73 +29 +33 душно 1015.4 1009.9
12 19.08 С 2 10 км 8/8 600 м
[Cb cap]
+27.0 +19.7 64 +33 +35 очень
душно
1015.4 1009.9
15 19.08 С 3 10 км 4/0
[Ci fib]
+28.2 +19.8 60 +34 +35 очень
душно
1015.3 1009.8 +28.6 0.0
18 19.08 С 2 10 км ясно +24.3 +19.7 76 +30 +30 очень
душно
1016.0 1010.5
21 19.08 С 2 10 км ясно +22.9 +18.9 78 +29 +29 очень
душно
1015.8 1010.3
00 20.08 штиль 0 10 км ясно +20.7 +18.7 88 +24 +24 комфорт 1016.2 1010.6
03 20.08 штиль 0 10 км 8/8 600 м
[Cb cap]
+19.2 +17.9 92 +21 +21 комфорт 1017.1 1011.5 +19.2
06 20.08 СВ 2 10 км 4/0
[Ac trans Ci fib]
+26.0 +18.4 63 +31 +37 очень
душно
1017.1 1011.6 +19.1
09 20.08 СВ 3 10 км 3/0
[Ac trans Ci fib]
+32.2 +15.6 37 +35 +45 очень
душно
1016.4 1011.0
12 20.08 СВ 3 10 км 8/3 600 м
[Cb cap Ac trans Ci fib]
+34.6 +14.1 29 +36 +39 душно 1015.4 1010.0
15 20.08 СВ 3
{11}
10 км 9/3 600 м
[Cb cap Ac trans Ci fib]
+33.1 +14.6 33 +35 +35 душно 1014.2 1008.8 +34.7
18 20.08 С 2 10 км 4/4 1500 м
[Sc]
+29.2 +15.4 43 +32 +32 душно 1014.9 1009.5
21 20.08 С 4 10 км 8/3 1500 м
[Sc Ci sp]
+27.2 +16.8 53 +31 +31 душно 1014.7 1009.2
00 21.08 СВ 2 10 км 9/9 600 м
[Cb cap]
+25.1 +15.9 57 +28 +28 жарко 1014.1 1008.6
03 21.08 СВ 2 10 км 9/9 600 м
[Cb cap]
+23.5 +15.8 62 +27 +27 душно 1014.2 1008.7 +23.4
06 21.08 СВ 2 10 км 9/0
[Ac trans Ci fib]
+27.5 +14.7 46 +30 +34 жарко 1013.9 1008.4 +23.2
09 21.08 СВ 3 10 км 3/0
[Ci fib]
+33.7 +13.2 29 +34 +46 очень
жарко
1012.5 1007.1
12 21.08 В 4 10 км 10/0
[Ac trans Ci sp]
+36.0 +9.8 20 +35 +40 очень
жарко
1011.1 1005.8
15 21.08 СВ 4
{11}
10 км 8/1 1000 м
[Cu med, cong Ac trans Cc]
+35.8 +3.8 14 +33 +33 жарко 1010.4 1005.1 +36.6
18 21.08 СВ 3 10 км 9/9 600 м
[Cb cap]
+31.1 +4.0 18 +29 +29 жарко 1010.4 1005.0
21 21.08 СВ 3 10 км {ливн. осадки} 6/6 1000 м
[Sc]
+27.4 +5.6 25 +26 +26 жарко 1010.9 1005.5
00 22.08 СВ 4 10 км {ливн. осадки} 8/6 600 м
[Cb cap Cc]
+25.8 +5.0 26 +25 +25 комфорт 1010.7 1005.1
03 22.08 СВ 3 10 км 5/3 1500 м
[Sc Ci fib]
+23.1 +6.0 33 +24 +24 комфорт 1010.9 1005.4 +23.1 0.0
06 22.08 В 4 10 км 8/4 1500 м
[Sc Ac trans Ci sp]
+28.9 +6.4 24 +28 +30 жарко 1011.8 1006.3 +22.9
09 22.08 В 7-13
{13}
10 км 5/3 600 м
[Cb cap Ci fib]
+34.9 +3.3 14 +32 +35 жарко 1010.7 1005.4
12 22.08 В 6-11
{14}
10 км 9/5 1000 м
[Cu med, cong Ac trans Ci sp]
+37.3 +2.4 11 +34 +35 очень
жарко
1010.4 1005.1
15 22.08 СВ 4
{12}
10 км 10/4 600 м
[Cb cap Ci sp]
+35.2 +1.4 12 +32 +32 жарко 1010.1 1004.8 +37.4
18 22.08 СВ 2 10 км ясно +30.0 +4.2 19 +28 +28 жарко 1011.3 1005.9
21 22.08 СВ 3 10 км 8/0
[Ci]
+27.6 +8.4 30 +27 +27 жарко 1011.3 1005.9
00 23.08 СВ 2 10 км 10/0
[Ci]
+23.9 +8.9 38 +25 +25 комфорт 1012.0 1006.5
03 23.08 СВ 1 10 км 10/1 600 м
[Cb cap Ac trans Cc]
+21.7 +10.2 48 +23 +23 комфорт 1012.3 1006.7 +21.6
06 23.08 СВ 2 10 км 8/0
[Cc]
+27.6 +9.2 31 +28 +34 жарко 1013.0 1007.5 +21.6
09 23.08 СВ 5 10 км 8/3 1000 м
[Cu med, cong Ci fib]
+35.8 +2.9 13 +33 +37 жарко 1012.1 1006.8
12 23.08 СВ 4
{12}
10 км 8/4 1000 м
[Cu med, cong Cc]
+37.4 +3.6 12 +34 +38 очень
жарко
1011.4 1006.1
15 23.08 В 3
{10}
10 км 8/3 600 м
[Cb cap Cc]
+35.0 +5.8 16 +32 +33 жарко 1011.7 1006.3 +37.6
18 23.08 С 3 10 км 3/0
[Ac trans Ci fib]
+29.4 +6.6 24 +28 +28 жарко 1012.3 1006.9
21 23.08 С 3 10 км ясно +26.8 +8.8 32 +27 +27 жарко 1012.1 1006.6
00 24.08 СВ 2 10 км 3/0
[Ci fib]
+24.8 +10.0 39 +26 +26 жарко 1012.4 1006.9
03 24.08 СВ 1 10 км 3/0
[Ac trans Ci fib]
+22.2 +11.2 50 +24 +24 комфорт 1013.4 1007.8 +22.2
06 24.08 В 3 10 км 8/0
[Ac trans Cc]
+28.9 +10.3 31 +29 +33 жарко 1013.9 1008.5 +21.6
09 24.08 СВ 3 10 км 6/0
[Cc]
+34.5 +9.1 21 +33 +44 жарко 1013.1 1007.7
12 24.08 СВ 4
{10}
10 км 9/3 600 м
[Cb cap Ac trans Cc]
+37.3 +6.0 15 +35 +37 очень
жарко
1012.4 1007.1
15 24.08 С 6-10
{12}
10 км 9/6 1500 м
[Sc Ci ing]
+35.5 +8.1 19 +34 +34 очень
жарко
1011.9 1006.6 +38.2
18 24.08 С 4
{12}
10 км 8/0
[Ci fib]
+31.5 +8.5 24 +30 +30 жарко 1013.5 1008.1
21 24.08 С 4 10 км 4/0
[Ci fib]
+27.5 +9.2 32 +28 +28 жарко 1013.7 1008.2
00 25.08 С 3 10 км 5/3 1000 м
[Sc Ci fib]
+24.5 +10.4 41 +26 +26 жарко 1013.4 1007.8
03 25.08 СЗ 1 10 км 8/8 600 м
[Cb cap]
+23.0 +11.0 47 +25 +25 комфорт 1014.1 1008.5 +22.0
06 25.08 С 4 10 км 9/0 1500 м
[]
+27.5 +11.7 37 +28 +31 жарко 1014.8 1009.3
09 25.08 СВ 4 10 км 3/0
[Ci fib]
+33.0 +10.4 25 +32 +42 жарко 1014.7 1009.3
12 25.08 В 5
{13}
10 км 4/4 1000 м
[Cu med, cong]
+35.2 +10.3 22 +34 +37 очень
жарко
1014.4 1009.1
15 25.08 В 4
{12}
10 км 4/3 600 м
[Cb cap Ci fib]
+32.6 +11.9 28 +33 +33 жарко 1015.1 1009.7 +35.5
18 25.08 В 3
{10}
10 км ясно +27.3 +13.5 43 +29 +29 жарко 1017.4 1011.9

 

Местоположение метеостанции Кореновск (Краснодарский край, Россия): широта 45.47 долгота 39.48 высота над уровнем моря 48 м.

В архиве по умолчанию представлена погода в Кореновске за последнюю неделю. Архивные данные за месяц целиком и за предыдущие месяцы, начиная с января 2011 года, Вы можете получить, выбрав интересующий диапазон дат из раскрывающегося списка и нажав кнопку "Ввод!".


*Определитесь, кто Вы:
робот инопланетянин человек

Внимание! Время в таблицах - всемирное. Для получения местного времени необходимо прибавить поправку, которая равна 3 ч.

Смотрите также архив погоды в соседних городах и на ближайших метеорологических станциях:

Погода в Усть-Лабинске (Краснодарский край, Россия) (33 км)
Погода в Тимашевске (Краснодарский край, Россия) (46 км)
Погода в Краснодаре (Краснодарский край, Россия) (59 км)
Погода в Тихорецке (Краснодарский край, Россия) (63 км)
Погода в Каневской (Краснодарский край, Россия) (78 км)
Погода в Сосыке (Краснодарский край, Россия) (78 км)
Погода в Кропоткине (Краснодарский край, Россия) (85 км)
Погода в Белореченске (Краснодарский край, Россия) (87 км)
Погода в Дондуковской (Адыгея, Россия) (96 км)
Погода в Горячем Ключе (Краснодарский край, Россия) (98 км)

Пояснения к столбцам:

Ветер - указаны скорость ветра в м/с - средняя за 10 мин, порывы в срок и между сроками (в фигурных скобках) и направление, откуда дует ветер: С - северный, СВ - северо-восточный, В - восточный, ЮВ - юго-восточный, Ю - южный, ЮЗ - юго-западный, З - западный, СЗ - северо-западный.
Видимость - горизонтальная дальность видимости в метрах или километрах. При видимости от 1 до 10 км при отсутствии осадков обычно наблюдается дымка, при ухудшении видимости до 1 км и менее - туман. В сухую погоду видимость может ухудшаться дымом, пылью или мглою.
Явления - указаны атмосферные явления, наблюдавшиеся в срок или в последний час перед сроком; фигурными скобками обозначены явления, наблюдавшиеся между сроками (за 1-3 часа до срока); квадратными скобками обозначены град или гололедные отложения с указанием их диаметра в мм.
Облачность - указаны через наклонную черту общая и нижняя облачность в баллах и высота нижней границы облаков в метрах; квадратными скобками обозначены формы облаков: Ci - перистые, Cs - перисто-слоистые, Cc - перисто-кучевые, Ac - высококучевые, As - высокослоистые, Sc - слоисто-кучевые, Ns - слоисто-дождевые, Cu - кучевые, Cb - кучево-дождевые. Подробнее классификацию облаков см. в Атласе облаков (PDF).
T - Температура воздуха - температура, измеренная на высоте 2 м над землей.
Td - Температура точки росы - температура, при понижении до которой содержащийся в воздухе водяной пар достигнет насыщения.
f - Относительная влажность воздуха - влажноcть воздуха, измеренная на высоте 2 м над землей.
Te - Эффективная температура - температура, которую ощущает одетый по сезону человек в тени. Характеристика душности погоды. При расчете учитывается влияние влажности воздуха и скорости ветра на теплоощущения человека.
Tes - Эффективная температура на солнце - температура, которую ощущает человек, с поправкой на солнечный нагрев. Характеристика знойности погоды. Зависит от высоты солнца над горизонтом, облачности и скорости ветра. Ночью, в пасмурную погоду, а также при ветре 12 м/с и более поправка равна нулю.
P - Атмосферное давление - приведенное к уровню моря атмосферное давление.
Po - Атмосферное давление - измеренное на уровне метеостанции атмосферное давление.
Tmin - Минимальная температура - минимум температуры воздуха на высоте 2 м над землей.
Tmax - Максимальная температура - максимум температуры воздуха на высоте 2 м над землей.
R - Количество осадков - Количество выпавших осадков за период времени, мм. При наведении курсора мыши на число - период времени, за который выпало указанное количество осадков.
R24 - Количество осадков - Количество выпавших осадков за 24 часа, мм.
S - Снежный покров - Высота снежного покрова, см. При наведении курсора мыши на число - состояние снежного покрова и степень покрытия местности в баллах.